Date,TemperatureHighF,TemperatureAvgF,TemperatureLowF,DewpointHighF,DewpointAvgF,DewpointLowF,HumidityHigh,HumidityAvg,HumidityLow,PressureMaxIn,PressureMinIn,WindSpeedMaxMPH,WindSpeedAvgMPH,GustSpeedMaxMPH,PrecipitationSumIn
2013-2-1,26,17,12,9,1,-5,63,48,27,29.96,29.75,4,2,8,0.00
2013-2-2,33,20,16,17,10,5,75,65,45,29.79,29.50,2,0,4,0.00
2013-2-3,33,20,15,15,4,-5,77,51,24,29.67,29.50,4,1,11,0.00
2013-2-4,27,23,20,17,11,0,75,61,36,29.67,29.60,2,0,5,0.00
2013-2-5,26,15,4,22,1,-19,82,56,28,29.90,29.60,3,1,7,0.00
2013-2-6,28,13,6,7,-6,-17,53,42,23,30.05,29.77,3,0,6,1.83
2013-2-7,32,23,15,12,3,-1,58,42,31,30.17,30.02,3,1,6,0.02
2013-2-8,30,27,24,27,22,12,87,80,58,30.01,29.44,3,1,11,0.00
2013-2-9,36,23,13,22,10,-2,84,60,29,30.05,29.49,5,2,22,0.04
2013-2-10,51,24,11,17,4,-2,66,45,21,30.16,30.04,3,1,7,0.16
2013-2-11,41,35,26,40,30,9,97,85,47,30.02,29.42,4,2,8,0.04
2013-2-12,44,35,29,34,22,18,93,58,42,29.71,29.47,4,2,13,0.01
2013-2-13,51,33,24,27,19,14,84,59,29,29.68,29.43,2,0,4,0.00
2013-2-14,31,31,31,27,27,27,84,84,84,29.46,29.45,0,0,2,0.00
2013-2-15,55,40,31,28,24,19,81,54,27,29.74,29.67,4,2,10,0.00
2013-2-16,37,30,24,28,19,5,86,66,44,29.71,29.52,3,0,7,0.07
2013-2-17,36,21,12,5,-3,-11,48,34,21,29.67,29.41,4,2,14,0.02
2013-2-18,27,12,10,0,-7,-10,46,41,29,29.91,29.68,4,2,11,0.00
2013-2-19,38,32,25,36,20,0,93,64,29,29.88,29.43,6,2,13,0.31
2013-2-20,32,25,18,18,7,0,63,46,30,29.68,29.45,0,0,0,0.01
2013-2-21,36,24,18,11,5,0,55,44,28,29.95,29.66,4,2,11,0.00
2013-2-22,34,25,16,25,14,4,81,62,48,30.08,29.96,3,1,6,0.00
2013-2-23,37,33,30,34,31,25,92,90,80,29.97,29.56,4,2,6,0.19
2013-2-24,42,34,28,40,27,14,95,78,56,29.70,29.50,3,1,5,0.01
2013-2-25,41,32,26,27,21,14,73,62,51,29.97,29.71,3,0,5,0.00
2013-2-26,39,33,29,28,24,20,87,68,56,30.00,29.63,5,2,12,0.01
2013-2-27,38,37,32,33,32,28,89,82,79,29.61,29.38,3,0,5,0.51
2013-2-28,46,37,31,33,28,20,84,68,47,29.39,29.31,2,0,4,0.00